Weather History for Joplin, MO

Change the Weather History Date:

Monday, February 18, 2013

  Actual Average Record
Temperature  
Mean Temperature 46 °F 41 °F  
Max Temperature 61 °F 52 °F 78 °F (1986)
Min Temperature 31 °F 30 °F -3 °F (1993)
Degree Days  
Heating Degree Days 19 24  
Month to date heating degree days 436 479  
Since 1 July heating degree days 2789 3028  
Cooling Degree Days 0 0  
Month to date cooling degree days 0 0  
Year to date cooling degree days 1 0  
Moisture  
Dew Point 35 °F    
Average Humidity 54    
Maximum Humidity 72    
Minimum Humidity 35    
Precipitation  
Precipitation 0.01 in 0.09 in 1.84 in (1974)
Month to date precipitation 0.83 1.40  
Year to date precipitation 3.28 3.43  
Snow  
Snow 0.00 in - - ()
Month to date snowfall 0.3  
Snow Depth 0.00 in    
Sea Level Pressure  
Sea Level Pressure 29.78 in    
Wind  
Wind Speed 21 mph (WSW)    
Max Wind Speed 30 mph    
Max Gust Speed 41 mph    
Visibility 10 miles    
Events Rain    
T = Trace of Precipitation, MM = Missing Value Source: NWS Daily Summary

Daily Weather History Graph

Daily Weather History Graph

Search for Another Location

Airport:

Trip Planner

Search our weather history database for the weather conditions in past years. The results will help you decide how hot, cold, wet, or windy it might be!

Date:

Astronomy

Feb. 18, 2013 Rise Set
Actual Time 7:02 AM CST 6:01 PM CST
Civil Twilight 6:36 AM CST 6:27 PM CST
Nautical Twilight 6:06 AM CST 6:58 PM CST
Astronomical Twilight 5:35 AM CST 7:28 PM CST
Moon 11:51 AM CST (2/18) 1:39 AM CST (2/18)
Length of Visible Light 11h 51m
Length of Day
10h 58m
First Quarter, 58% of the Moon is Illuminated
Feb 18
First Quarter
Feb 25
Full
Mar 4
Last Quarter
Mar 11
New
Mar 19
First Quarter

Hourly Weather History & Observations

Time (CST) Temp. Windchill Dew Point Humidity Pressure Visibility Wind Dir Wind Speed Gust Speed Precip Events Conditions
12:53 AM 54.0 °F - 28.9 °F 38% 29.75 in 10.0 mi South 20.7 mph 27.6 mph N/A   Clear
1:53 AM 54.0 °F - 30.9 °F 41% 29.72 in 10.0 mi South 20.7 mph 32.2 mph N/A   Clear
2:53 AM 54.0 °F - 33.1 °F 45% 29.69 in 10.0 mi South 23.0 mph 34.5 mph N/A   Clear
3:53 AM 53.1 °F - 35.1 °F 50% 29.67 in 10.0 mi South 23.0 mph 40.3 mph N/A   Clear
4:53 AM 53.1 °F - 39.0 °F 59% 29.66 in 10.0 mi South 25.3 mph 40.3 mph N/A   Clear
5:53 AM 52.0 °F - 41.0 °F 66% 29.64 in 10.0 mi South 24.2 mph 35.7 mph N/A   Clear
7:53 AM 55.4 °F - 44.6 °F 67% 29.64 in 10.0 mi South 25.3 mph 36.8 mph N/A   Mostly Cloudy
8:53 AM 57.0 °F - 45.0 °F 64% 29.62 in 10.0 mi SSW 27.6 mph 34.5 mph N/A   Mostly Cloudy
9:53 AM 57.9 °F - 46.0 °F 65% 29.60 in 10.0 mi South 24.2 mph 40.3 mph N/A   Mostly Cloudy
10:53 AM 57.9 °F - 46.9 °F 67% 29.60 in 10.0 mi South 24.2 mph 33.4 mph 0.00 in   Overcast
11:53 AM 60.1 °F - 48.0 °F 64% 29.60 in 10.0 mi SSW 24.2 mph 34.5 mph 0.00 in   Overcast
12:53 PM 59.0 °F - 48.9 °F 69% 29.56 in 10.0 mi SSW 25.3 mph 34.5 mph N/A   Overcast
1:14 PM 55.4 °F - 46.4 °F 72% 29.59 in 10.0 mi WSW 23.0 mph 38.0 mph 0.01 in Rain Light Rain
1:53 PM 57.0 °F - 36.0 °F 45% 29.60 in 10.0 mi West 26.5 mph 35.7 mph 0.01 in   Mostly Cloudy
2:53 PM 52.0 °F - 36.0 °F 54% 29.68 in 10.0 mi NW 29.9 mph 41.4 mph N/A   Partly Cloudy
3:53 PM 48.9 °F - 34.0 °F 56% 29.76 in 10.0 mi NW 25.3 mph 34.5 mph N/A   Partly Cloudy
4:53 PM 48.0 °F - 32.0 °F 54% 29.81 in 10.0 mi NW 26.5 mph 34.5 mph N/A   Overcast
5:53 PM 42.1 °F 33.3 °F 30.9 °F 65% 29.91 in 10.0 mi NNW 19.6 mph 27.6 mph N/A   Scattered Clouds
6:53 PM 41.0 °F 31.9 °F 30.9 °F 67% 29.96 in 10.0 mi NNW 19.6 mph 27.6 mph N/A   Overcast
7:53 PM 37.9 °F 31.5 °F 28.0 °F 68% 30.01 in 10.0 mi WNW 9.2 mph - N/A   Overcast
8:03 PM 37.4 °F 30.8 °F 28.4 °F 70% 30.01 in 10.0 mi WNW 9.2 mph - N/A   Mostly Cloudy
8:53 PM 35.1 °F 27.9 °F 26.1 °F 70% 30.05 in 10.0 mi WNW 9.2 mph - N/A   Clear
9:53 PM 32.0 °F 25.6 °F 24.1 °F 73% 30.09 in 10.0 mi NNW 6.9 mph - N/A   Clear
10:53 PM 32.0 °F 23.6 °F 23.0 °F 69% 30.13 in 10.0 mi NNW 10.4 mph - N/A   Clear
11:53 PM 30.9 °F 22.2 °F 19.9 °F 64% 30.16 in 10.0 mi NNW 10.4 mph - N/A   Clear